PBO Station Position Time Series. Reference Frame : NAM14
Format Version,1.1.1
4-character ID,AC07
Station name,Buckland__AK2007
Begin Date, 2007-07-25
End Date, 2023-06-26
Release Date, 2023-06-27
Reference position, 65.9612926963 North Latitude, -161.2866158525 East Longitude, 176.33238 meters elevation,
Date, North (mm), East (mm), Vertical (mm), North Std. Deviation (mm), East Std. Deviation (mm),              Vertical Std. Deviation (mm), Quality,
2007-07-25,0.00, 0.00, 0.00, 2.09, 1.46, 7.57, repro,
2007-07-26,-1.44, 0.42, -2.96, 2.08, 1.47, 7.57, repro,
2007-07-27,-1.57, -0.21, -3.81, 2.10, 1.49, 7.68, repro,
2007-07-28,-1.06, -0.44, -12.28, 2.08, 1.47, 7.61, repro,
2007-07-29,-0.01, 0.65, 0.02, 2.14, 1.48, 7.69, repro,
2007-07-30,-0.71, -0.56, -0.76, 2.10, 1.46, 7.56, repro,
2007-07-31,-0.61, -0.60, -7.54, 2.11, 1.47, 7.63, repro,
2007-08-01,-0.36, -0.42, -13.56, 2.12, 1.50, 7.74, repro,
2007-08-02,0.70, 0.74, -7.86, 2.08, 1.47, 7.60, repro,
2007-08-03,-1.56, -0.10, 5.30, 2.10, 1.47, 7.61, repro,
2007-08-04,-0.27, -0.28, -2.15, 2.10, 1.47, 7.60, repro,
2007-08-05,0.38, -0.54, -1.23, 2.10, 1.47, 7.64, repro,
2007-08-06,-0.86, -2.31, -9.95, 2.16, 1.52, 7.78, repro,
2007-08-07,-0.21, 0.44, -16.13, 2.18, 1.52, 7.79, repro,
2007-08-08,-2.92, -0.06, -11.01, 2.08, 1.46, 7.58, repro,
2007-08-09,-0.48, 0.15, -7.03, 2.11, 1.46, 7.60, repro,
2007-08-10,-0.39, -0.51, -13.15, 2.19, 1.54, 7.87, repro,
2007-08-11,-1.12, 0.15, -10.24, 2.12, 1.48, 7.64, repro,
2007-08-12,-0.72, -4.61, -9.00, 2.18, 1.52, 7.91, repro,
2007-08-13,-1.96, -1.15, -14.73, 2.09, 1.48, 7.58, repro,
2007-08-14,-1.68, -1.09, -9.60, 2.25, 1.57, 8.10, repro,
2007-08-15,-2.69, 1.70, -6.68, 2.25, 1.58, 8.12, repro,
2007-08-16,-1.57, 0.11, -0.35, 2.16, 1.52, 8.00, repro,
2007-08-17,-2.58, 0.12, -2.25, 2.16, 1.51, 7.92, repro,
2007-08-18,-0.46, -0.15, 0.54, 2.20, 1.55, 7.99, repro,
2007-08-19,-0.92, -0.70, 7.80, 2.22, 1.56, 8.05, repro,
2007-08-20,-1.43, 0.67, 2.13, 2.20, 1.58, 8.01, repro,
2007-08-21,-1.20, 1.51, 0.26, 2.15, 1.51, 7.94, repro,
2007-08-22,-0.64, 0.68, -7.70, 2.16, 1.52, 7.89, repro,
2007-08-23,-2.89, 0.33, -4.25, 2.19, 1.51, 7.92, repro,
2007-08-24,-3.68, 0.37, 3.76, 2.22, 1.55, 8.23, repro,
2007-08-25,-0.77, -0.41, -5.35, 2.19, 1.54, 7.97, repro,
2007-08-26,-1.55, -0.36, -1.02, 2.24, 1.57, 8.15, repro,
2007-08-27,-2.73, 0.24, -14.99, 2.21, 1.57, 8.10, repro,
2007-08-28,-0.46, 0.59, -4.49, 2.19, 1.53, 7.96, repro,
2007-08-29,-1.52, 0.99, -1.04, 2.19, 1.53, 7.99, repro,
2007-08-30,-2.72, 2.27, -14.27, 2.32, 1.68, 8.07, repro,
2007-08-31,-2.27, 1.54, -3.11, 2.19, 1.54, 8.00, repro,
2007-09-01,-0.09, 0.46, 1.10, 2.20, 1.55, 8.02, repro,
2007-09-02,-2.70, -0.61, -6.47, 2.20, 1.55, 7.95, repro,
2007-09-03,-2.07, 0.19, -6.43, 2.18, 1.53, 7.94, repro,
2007-09-04,-1.65, 0.18, -4.79, 2.19, 1.53, 7.97, repro,
2007-09-05,-2.07, 0.98, -8.18, 2.25, 1.56, 8.18, repro,
2007-09-06,-1.71, 0.57, -10.17, 2.20, 1.53, 7.92, repro,
2007-09-07,-0.87, -0.34, -4.61, 2.18, 1.53, 7.89, repro,
2007-09-08,-1.65, 0.99, -4.74, 2.21, 1.57, 8.03, repro,
2007-09-09,-2.40, -0.28, -14.25, 2.24, 1.57, 8.15, repro,
2007-09-10,-1.29, -1.87, -11.88, 2.19, 1.53, 7.97, repro,
2007-09-11,-0.28, 1.70, -7.56, 2.20, 1.53, 7.99, repro,
2007-09-12,-0.98, 0.31, -4.50, 2.16, 1.53, 7.90, repro,
2007-09-13,-1.12, 0.78, -0.93, 2.17, 1.52, 7.93, repro,
2007-09-14,-3.95, -0.58, -11.64, 2.21, 1.55, 7.99, repro,
2007-09-15,-0.65, 0.15, -5.51, 2.24, 1.60, 8.12, repro,
2007-09-16,-1.05, -0.03, -11.38, 2.18, 1.53, 7.96, repro,
2007-09-17,-2.07, 0.42, -5.97, 2.17, 1.52, 7.94, repro,
2007-09-18,-2.80, 1.29, -7.23, 2.15, 1.50, 7.76, repro,
2007-09-19,-2.88, 0.12, -2.39, 2.11, 1.47, 7.63, repro,
2007-09-20,-0.93, -0.16, -3.20, 2.11, 1.48, 7.65, repro,
2007-09-21,-1.08, 0.01, -8.67, 2.12, 1.48, 7.64, repro,
2007-09-22,-0.53, 0.84, -6.28, 2.09, 1.49, 7.62, repro,
2007-09-23,-0.42, 0.25, -1.27, 2.10, 1.48, 7.64, repro,
2007-09-24,0.33, -0.54, 3.54, 2.18, 1.50, 7.89, repro,
2007-09-25,0.82, -1.19, 0.07, 2.23, 1.55, 8.34, repro,
2007-09-26,-0.79, -0.80, -2.54, 2.10, 1.47, 7.62, repro,
2007-09-27,0.15, 0.20, -5.34, 2.17, 1.52, 7.75, repro,
2007-09-28,0.45, 0.17, 1.80, 2.11, 1.48, 7.61, repro,
2007-09-29,-0.71, 0.04, 4.87, 2.19, 1.52, 7.78, repro,
2007-09-30,-0.67, 0.53, 5.67, 2.14, 1.48, 7.70, repro,
2007-10-01,-2.16, -0.60, 4.36, 2.19, 1.51, 7.81, repro,
2007-10-02,-1.78, -0.36, -5.45, 2.21, 1.53, 7.83, repro,
2007-10-03,-1.53, -0.04, -5.05, 2.23, 1.55, 7.82, repro,
2007-10-04,-0.76, 0.50, -6.59, 2.19, 1.52, 7.80, repro,
2007-10-05,-0.65, -0.27, 8.52, 2.12, 1.48, 7.68, repro,
2007-10-06,-1.70, 0.09, 3.73, 2.12, 1.48, 7.73, repro,
2007-10-07,-0.95, -0.03, -0.30, 2.11, 1.48, 7.67, repro,
2007-10-08,-0.44, 0.46, -6.01, 2.25, 1.59, 8.20, repro,
2007-10-09,-1.85, -2.27, -10.85, 2.27, 1.62, 8.13, repro,
2007-10-10,-1.20, 0.17, -7.59, 2.18, 1.55, 8.10, repro,
2007-10-11,-1.53, 0.36, 0.78, 2.12, 1.49, 7.73, repro,
2007-10-12,-1.71, -0.45, -0.33, 2.14, 1.48, 7.69, repro,
2007-10-13,-0.63, 0.04, -2.92, 2.12, 1.48, 7.68, repro,
2007-10-14,-2.42, 0.60, 1.87, 2.18, 1.51, 7.78, repro,
2007-10-15,-1.59, 0.07, 0.39, 2.12, 1.48, 7.67, repro,
2007-10-16,-1.40, -0.41, -1.14, 2.11, 1.48, 7.67, repro,
2007-10-17,-0.41, -0.54, -0.17, 2.21, 1.54, 7.88, repro,
2007-10-18,-0.85, -0.30, 1.42, 2.17, 1.52, 7.78, repro,
2007-10-19,-0.91, 0.22, 0.78, 2.21, 1.55, 7.90, repro,
2007-10-20,-0.57, -0.18, 3.16, 2.18, 1.53, 7.85, repro,
2007-10-21,-0.84, 0.07, -3.15, 2.11, 1.47, 7.65, repro,
2007-10-22,-0.00, -0.82, 1.31, 2.18, 1.52, 7.78, repro,
2007-10-23,0.11, -0.66, -0.63, 2.27, 1.60, 7.98, repro,
2007-10-24,0.91, -0.88, -4.87, 2.20, 1.54, 7.86, repro,
2007-10-25,0.00, 0.26, -1.11, 2.28, 1.58, 8.22, repro,
2007-10-26,-1.15, 0.50, 6.01, 2.23, 1.53, 8.00, repro,
2007-10-27,-0.35, -1.11, 3.94, 2.21, 1.53, 7.83, repro,
2007-10-28,0.12, -1.38, -0.54, 2.18, 1.50, 7.81, repro,
2007-10-29,-0.04, -0.95, -0.89, 2.15, 1.51, 7.74, repro,
2007-10-30,-0.18, -0.72, 2.57, 2.15, 1.50, 7.74, repro,
2007-10-31,-0.83, -1.07, 6.05, 2.15, 1.50, 7.79, repro,
2007-11-01,-0.67, -0.56, 8.22, 2.11, 1.46, 7.62, repro,
2007-11-02,-0.75, -0.16, 4.33, 2.12, 1.47, 7.68, repro,
2007-11-03,-1.36, 0.34, 3.13, 2.10, 1.47, 7.61, repro,
2007-11-04,-1.86, 0.46, -1.69, 2.12, 1.47, 7.71, repro,
2007-11-05,-2.09, -0.17, -1.97, 2.13, 1.48, 7.73, repro,
2007-11-06,-1.96, -1.03, -4.63, 2.11, 1.46, 7.62, repro,
2007-11-07,-1.85, -0.26, 2.49, 2.10, 1.47, 7.63, repro,
2007-11-08,-2.31, -0.40, 6.46, 2.16, 1.49, 7.81, repro,
2007-11-09,-4.57, -2.76, 14.84, 2.14, 1.49, 7.73, repro,
2007-11-10,-5.43, -1.79, 21.97, 2.11, 1.49, 7.71, repro,
2007-11-11,-5.49, -2.47, 18.03, 2.11, 1.47, 7.65, repro,
2007-11-12,-5.03, -2.18, 13.88, 2.15, 1.52, 7.75, repro,
2007-11-13,-4.77, -2.95, 13.53, 2.14, 1.48, 7.71, repro,
2007-11-14,-5.57, -1.84, 10.02, 2.10, 1.47, 7.62, repro,
2007-11-15,-5.98, -0.86, 14.51, 2.11, 1.48, 7.64, repro,
2007-11-16,-5.48, 1.71, 18.76, 2.14, 1.48, 7.77, repro,
2007-11-17,-5.52, 2.30, 16.96, 2.12, 1.47, 7.66, repro,
2007-11-18,-6.19, 1.44, 14.65, 2.13, 1.48, 7.74, repro,
2007-11-19,-6.11, 0.63, 11.20, 2.13, 1.47, 7.73, repro,
2007-11-20,-6.11, 0.88, 11.56, 2.62, 1.76, 9.12, repro,
2007-11-21,-5.83, 0.72, 18.68, 2.28, 1.56, 8.23, repro,
2007-11-22,-5.89, -1.35, 13.72, 2.15, 1.48, 7.76, repro,
2007-11-23,-5.39, -0.98, 18.10, 2.23, 1.54, 8.07, repro,
2007-11-24,-5.67, -0.52, 14.81, 2.19, 1.50, 7.91, repro,
2007-11-25,-4.11, -1.24, 10.72, 2.14, 1.49, 7.77, repro,
2007-11-26,-3.46, -1.14, 10.12, 2.52, 1.79, 9.23, repro,
2007-11-27,-5.10, -2.23, -1.64, 2.29, 1.56, 8.53, repro,
2007-11-28,-4.27, -1.28, -5.53, 2.21, 1.49, 7.97, repro,
2007-11-29,-3.12, 0.11, -9.16, 2.41, 1.63, 9.09, repro,
2007-11-30,-3.67, 1.38, -3.19, 2.20, 1.51, 7.94, repro,
2007-12-01,-0.76, 0.69, -5.91, 2.20, 1.51, 7.92, repro,
2007-12-02,-0.62, 0.19, -5.83, 2.34, 1.62, 8.84, repro,
2007-12-03,-1.38, 1.04, -1.26, 2.35, 1.61, 8.79, repro,
2007-12-04,-1.81, 1.44, 8.36, 2.45, 1.69, 9.11, repro,
2007-12-05,-3.87, 2.29, 2.73, 2.38, 1.66, 8.69, repro,
2007-12-06,-1.10, -1.34, 2.13, 2.37, 1.69, 8.84, repro,
2007-12-07,-2.82, -1.38, -9.76, 2.32, 1.62, 8.78, repro,
2007-12-08,-0.42, -1.55, -10.47, 2.25, 1.55, 8.34, repro,
2007-12-09,-2.16, -0.11, -11.56, 2.55, 1.73, 9.55, repro,
2007-12-10,-1.53, -0.31, -3.92, 2.39, 1.59, 9.00, repro,
2007-12-11,-3.01, -0.06, -0.97, 2.24, 1.56, 8.31, repro,
2007-12-12,-0.79, 0.77, -4.83, 2.29, 1.59, 8.68, repro,
2007-12-13,-1.90, 0.55, -9.58, 2.34, 1.61, 8.85, repro,
2007-12-14,-0.78, 0.23, -14.63, 2.15, 1.49, 7.91, repro,
2007-12-15,0.08, -0.74, -8.27, 2.20, 1.51, 8.19, repro,
2007-12-16,0.07, -0.00, -18.37, 2.18, 1.52, 8.14, repro,
2007-12-17,1.38, 0.70, -12.21, 2.23, 1.57, 8.32, repro,
2007-12-18,-0.15, 1.37, -6.19, 2.23, 1.55, 8.20, repro,
2007-12-19,1.71, 0.70, -6.21, 2.39, 1.66, 9.21, repro,
2007-12-20,-2.24, 0.93, -10.28, 2.23, 1.52, 8.34, repro,
2007-12-21,-1.84, 1.35, -10.77, 2.34, 1.61, 8.83, repro,
2007-12-22,-0.77, 2.28, -5.34, 2.32, 1.61, 8.70, repro,
2007-12-23,-0.45, 0.76, -1.87, 2.20, 1.53, 8.23, repro,
2007-12-24,-1.27, 0.57, -0.13, 2.23, 1.54, 8.32, repro,
2007-12-25,-1.18, -0.22, -8.72, 2.21, 1.53, 8.26, repro,
2007-12-26,-0.67, 0.04, -13.74, 2.26, 1.54, 8.46, repro,
2007-12-27,-0.60, -1.22, -9.70, 2.27, 1.55, 8.31, repro,
2007-12-28,-1.97, -0.40, -3.79, 2.21, 1.53, 8.12, repro,
2007-12-29,-1.88, -1.49, -11.30, 2.19, 1.53, 7.96, repro,
2007-12-30,-1.58, -1.56, -14.68, 2.21, 1.53, 8.02, repro,
2007-12-31,-1.33, -0.59, -15.58, 2.14, 1.49, 7.96, repro,
2008-01-01,-2.48, -0.33, -13.31, 2.15, 1.49, 7.91, repro,
2008-01-02,-1.46, -0.70, -3.62, 2.14, 1.48, 7.90, repro,
2008-01-03,-1.86, -0.97, 1.59, 2.09, 1.46, 7.67, repro,
2008-01-04,-2.40, -1.03, 3.17, 2.13, 1.49, 7.80, repro,
2008-01-05,-2.37, -0.98, -1.46, 2.22, 1.54, 8.16, repro,
2008-01-06,-2.87, -0.41, -5.90, 2.12, 1.48, 7.76, repro,
2008-01-07,-3.27, -0.01, -7.17, 2.11, 1.46, 7.70, repro,
2008-01-08,-2.39, 0.77, -10.14, 2.12, 1.47, 7.87, repro,
2008-01-09,-1.50, 0.14, -7.38, 2.12, 1.48, 7.88, repro,
2008-01-10,-2.36, 0.41, -8.32, 2.11, 1.48, 7.75, repro,
2008-01-11,-1.64, 0.11, -11.75, 2.13, 1.48, 7.90, repro,
2008-01-12,-1.44, -0.69, -14.98, 2.10, 1.47, 7.64, repro,
2008-01-13,-2.24, -0.12, -17.97, 2.13, 1.48, 7.71, repro,
2008-01-14,-0.99, -0.31, -16.24, 2.12, 1.50, 8.01, repro,
2008-01-15,-1.02, -0.56, -11.66, 2.11, 1.48, 7.72, repro,
2008-01-16,-3.63, -0.25, -8.55, 2.17, 1.50, 8.01, repro,
2008-01-17,-2.10, -0.05, -18.89, 2.16, 1.49, 7.97, repro,
2008-01-18,-3.27, -1.42, -15.66, 2.13, 1.48, 7.73, repro,
2008-01-19,-1.74, -1.44, -13.91, 2.11, 1.48, 7.77, repro,
2008-01-20,-3.10, -2.91, -12.41, 2.10, 1.49, 7.65, repro,
2008-01-21,-0.98, -2.53, -14.65, 2.17, 1.53, 7.87, repro,
2008-01-22,-2.01, -0.16, -3.86, 2.11, 1.48, 7.71, repro,
2008-01-23,-1.54, -2.43, -16.69, 2.12, 1.47, 7.75, repro,
2008-01-24,-0.64, -1.44, -18.15, 2.13, 1.47, 7.80, repro,
2008-01-25,-0.66, -0.70, -5.86, 2.17, 1.51, 8.45, repro,
2008-01-26,-0.26, -0.63, -9.44, 2.19, 1.53, 8.55, repro,
2008-01-27,-0.63, 0.40, -3.67, 2.16, 1.51, 8.14, repro,
2008-01-28,-0.18, 0.57, 5.42, 2.14, 1.50, 8.03, repro,
2008-01-29,-1.38, -0.50, -2.88, 2.31, 1.65, 8.45, repro,
2008-01-30,-0.64, -1.43, -5.95, 2.40, 1.70, 9.24, repro,
2008-01-31,-1.12, -1.88, -3.90, 2.18, 1.52, 8.47, repro,
2008-02-01,-0.78, -2.07, -4.39, 2.28, 1.59, 8.54, repro,
2008-02-02,-1.61, -1.47, -6.58, 2.29, 1.55, 8.43, repro,
2008-02-03,-1.24, -2.17, -8.52, 2.21, 1.51, 8.03, repro,
2008-02-04,-0.58, -2.25, -8.92, 2.14, 1.48, 7.69, repro,
2008-02-05,-0.91, -2.49, -9.76, 2.22, 1.54, 8.11, repro,
2008-02-06,-1.48, -1.84, -8.69, 2.23, 1.56, 8.22, repro,
2008-02-07,-0.99, -2.29, -9.32, 2.18, 1.52, 7.97, repro,
2008-02-08,0.94, -0.51, -16.81, 2.16, 1.49, 7.84, repro,
2008-02-09,2.13, -0.92, -8.19, 2.16, 1.49, 7.79, repro,
2008-02-10,1.57, -1.11, -6.57, 2.23, 1.53, 8.02, repro,
2008-02-11,0.98, -1.47, -4.64, 2.25, 1.54, 8.18, repro,
2008-02-12,-0.06, -1.06, -3.81, 2.16, 1.49, 7.78, repro,
2008-02-13,0.54, -1.42, -6.50, 2.12, 1.47, 7.70, repro,
2008-02-14,-0.11, -0.63, 7.05, 2.15, 1.48, 7.72, repro,
2008-02-15,-1.92, -0.18, 5.46, 2.19, 1.50, 7.89, repro,
2008-02-16,-0.08, -0.88, -6.54, 2.12, 1.46, 7.68, repro,
2008-02-17,0.08, -1.00, -6.31, 2.10, 1.46, 7.62, repro,
2008-02-18,-0.09, -0.07, 1.61, 2.16, 1.50, 7.89, repro,
2008-02-19,1.29, -0.83, -4.73, 2.15, 1.48, 7.73, repro,
2008-02-20,2.75, -2.44, -0.03, 2.13, 1.46, 7.61, repro,
2008-02-21,1.05, -1.52, 0.31, 2.13, 1.47, 7.64, repro,
2008-02-22,1.75, -1.67, -3.41, 2.13, 1.47, 7.70, repro,
2008-02-23,-0.99, 0.68, -15.12, 2.13, 1.48, 7.73, repro,
2008-02-24,-1.58, -0.38, -17.82, 2.13, 1.47, 7.71, repro,
2008-02-25,0.19, 0.06, -13.38, 2.15, 1.47, 7.73, repro,
2008-02-26,-0.15, 0.14, -14.06, 2.12, 1.46, 7.61, repro,
2008-02-27,0.90, 0.25, -7.84, 2.15, 1.47, 7.72, repro,
2008-02-28,-1.03, -0.70, -14.99, 2.18, 1.51, 7.90, repro,
2008-02-29,-0.31, -0.14, -15.58, 2.25, 1.55, 8.11, repro,
2008-03-01,1.09, 1.06, -13.74, 2.16, 1.50, 7.82, repro,
2008-03-02,0.39, 0.20, -9.08, 2.13, 1.47, 7.69, repro,
2008-03-03,-0.19, 0.07, -8.63, 2.12, 1.47, 7.63, repro,
2008-03-04,0.05, -0.16, -9.02, 2.13, 1.47, 7.72, repro,
2008-03-05,-0.92, -1.08, -12.20, 2.26, 1.58, 8.23, repro,
2008-03-06,-0.46, -0.71, -0.63, 2.12, 1.47, 7.72, repro,
2008-03-07,0.61, -1.25, -2.85, 2.11, 1.47, 7.68, repro,
2008-03-08,0.95, -1.28, 0.18, 2.21, 1.52, 8.03, repro,
2008-03-09,-1.46, -0.44, -7.06, 2.32, 1.62, 8.39, repro,
2008-03-10,-1.71, -0.71, -4.42, 2.13, 1.46, 7.72, repro,
2008-03-11,-1.49, -0.97, -13.64, 2.18, 1.49, 7.86, repro,
2008-03-12,-3.39, -0.34, -13.38, 2.14, 1.47, 7.73, repro,
2008-03-13,-2.37, 0.16, -18.44, 2.14, 1.48, 7.76, repro,
2008-03-14,-2.48, 0.29, -23.49, 2.13, 1.47, 7.67, repro,
2008-03-15,-1.99, -0.18, -14.12, 2.19, 1.52, 7.88, repro,
2008-03-16,-2.65, 0.18, -7.38, 2.13, 1.46, 7.73, repro,
2008-03-17,-1.94, -0.52, -8.48, 2.24, 1.54, 8.06, repro,
2008-03-18,-2.37, 0.08, -9.12, 2.25, 1.54, 8.05, repro,
2008-03-19,-2.32, -0.85, -11.71, 2.19, 1.52, 7.80, repro,
2008-03-20,-1.97, 0.23, -9.82, 2.18, 1.50, 7.76, repro,
2008-03-21,-3.17, 1.10, -11.72, 2.20, 1.51, 7.80, repro,
2008-03-22,-3.85, 1.10, -16.48, 2.20, 1.51, 7.87, repro,
2008-03-23,-3.15, 0.58, -9.44, 2.25, 1.55, 8.18, repro,
2008-03-24,-3.28, 0.67, -5.66, 2.18, 1.51, 7.82, repro,
2008-03-25,-4.08, 0.90, -8.90, 2.19, 1.53, 7.75, repro,
2008-03-26,-5.46, 0.57, -9.15, 2.28, 1.60, 8.12, repro,
2008-03-27,-3.92, 0.84, -15.92, 2.32, 1.61, 8.21, repro,
2008-03-28,-3.78, -0.06, -17.09, 2.25, 1.55, 7.98, repro,
2008-03-29,-4.02, -0.50, -17.88, 2.17, 1.51, 7.78, repro,
2008-03-30,-4.50, 0.79, -8.10, 2.14, 1.50, 7.68, repro,
2008-03-31,-3.98, -0.07, -7.33, 2.13, 1.49, 7.58, repro,
2008-04-01,-4.03, -0.27, -11.57, 2.15, 1.48, 7.63, repro,
2008-04-02,-0.18, -2.25, -9.08, 2.18, 1.51, 7.96, repro,
2008-04-03,-3.50, -0.27, -10.36, 2.17, 1.50, 7.80, repro,
2008-04-04,-2.46, 0.71, -11.75, 2.17, 1.51, 7.76, repro,
2008-04-05,-3.54, 0.70, -10.82, 2.18, 1.51, 7.79, repro,
2008-04-06,-4.19, 0.52, -16.35, 2.19, 1.52, 7.73, repro,
2008-04-07,-4.34, 0.83, -17.00, 2.18, 1.49, 7.73, repro,
2008-04-08,-3.51, -0.01, -13.23, 2.21, 1.53, 7.87, repro,
2008-04-09,-3.27, 0.20, -15.73, 2.16, 1.50, 7.76, repro,
2008-04-10,-4.23, -0.01, -14.53, 2.14, 1.50, 7.63, repro,
2008-04-11,-4.00, 0.29, -17.87, 2.14, 1.50, 7.68, repro,
2008-04-12,-3.07, 0.32, -14.13, 2.13, 1.49, 7.62, repro,
2008-04-13,-3.09, 0.39, -6.14, 2.14, 1.49, 7.74, repro,
2008-04-14,-1.13, 1.45, -9.10, 2.14, 1.49, 7.73, repro,
2008-04-15,-3.10, -0.67, -4.39, 2.19, 1.53, 7.86, repro,
2008-04-16,-3.91, 1.64, -12.73, 2.23, 1.56, 7.91, repro,
2008-04-17,-3.81, 1.46, -16.42, 2.11, 1.48, 7.56, repro,
2008-04-18,-3.29, 1.77, -25.78, 2.14, 1.49, 7.64, repro,
2008-04-19,-4.30, -1.96, -28.43, 2.16, 1.49, 7.82, repro,
2008-04-20,-0.79, 0.25, -22.73, 2.19, 1.51, 7.85, repro,
2008-04-21,-1.61, -0.17, -23.92, 2.14, 1.50, 7.70, repro,
2008-04-22,-2.03, -0.10, -21.37, 2.12, 1.48, 7.58, repro,
2008-04-23,-1.42, 0.05, -26.44, 2.27, 1.59, 8.16, repro,
2008-04-24,-1.66, -1.26, -13.61, 2.24, 1.56, 8.04, repro,
2008-04-25,-3.01, 0.30, -14.99, 2.12, 1.48, 7.67, repro,
2008-04-26,-3.22, 0.95, -14.54, 2.27, 1.56, 8.03, repro,
2008-04-27,-2.95, 0.92, -12.85, 2.18, 1.53, 7.75, repro,
2008-04-28,-2.86, 1.49, -15.09, 2.22, 1.55, 7.79, repro,
2008-04-29,-4.22, 1.02, -13.42, 2.25, 1.58, 8.04, repro,
2008-04-30,-1.94, 1.39, -16.52, 2.12, 1.50, 7.68, repro,
2008-05-01,-1.48, 1.73, -15.50, 2.18, 1.51, 7.81, repro,
2008-05-02,-2.05, 1.76, -15.58, 2.13, 1.49, 7.66, repro,
2008-05-03,-2.02, 2.02, -14.22, 2.13, 1.49, 7.58, repro,
2008-05-04,-2.36, 0.87, -12.82, 2.13, 1.49, 7.60, repro,
2008-05-05,-2.09, 1.66, -17.72, 2.14, 1.50, 7.69, repro,
2008-05-06,-2.54, 1.29, -20.21, 2.17, 1.54, 7.84, repro,
2008-05-07,-2.69, 1.15, -21.01, 2.15, 1.49, 7.70, repro,
2008-05-08,-2.27, 1.43, -22.28, 2.15, 1.48, 7.70, repro,
2008-05-09,-2.40, 0.59, -19.63, 2.12, 1.49, 7.59, repro,
2008-05-10,-0.59, 0.19, -15.67, 2.13, 1.49, 7.63, repro,
2008-05-11,-0.26, 0.74, -14.05, 2.13, 1.49, 7.66, repro,
2008-05-12,-1.94, 0.91, -11.20, 2.13, 1.49, 7.69, repro,
2008-05-13,-0.67, 0.50, -5.66, 2.14, 1.48, 7.63, repro,
2008-05-14,-0.79, 0.90, -10.87, 2.14, 1.48, 7.62, repro,
2008-05-15,-1.00, 0.05, -7.90, 2.14, 1.49, 7.62, repro,
2008-05-16,-0.09, 0.18, -18.80, 2.14, 1.50, 7.68, repro,
2008-05-17,-0.37, 1.07, -19.59, 2.13, 1.49, 7.66, repro,
2008-05-18,-0.02, 0.69, -21.53, 2.13, 1.48, 7.62, repro,
2008-05-19,0.07, 1.25, -20.13, 2.17, 1.49, 7.70, repro,
2008-05-20,-0.05, 1.56, -17.98, 2.14, 1.49, 7.65, repro,
2008-05-21,-0.39, 1.85, -17.84, 2.14, 1.50, 7.67, repro,
2008-05-22,0.29, 1.32, -22.47, 2.18, 1.51, 7.81, repro,
2008-05-23,0.50, 0.29, -21.48, 2.18, 1.52, 7.79, repro,
2008-05-24,-1.39, 1.28, -25.26, 2.20, 1.50, 7.77, repro,
2008-05-25,0.91, 0.45, -22.58, 2.18, 1.51, 7.77, repro,
2008-05-26,-1.06, 0.42, -24.56, 2.12, 1.49, 7.56, repro,
2008-05-27,1.85, 0.18, -29.16, 2.16, 1.51, 7.72, repro,
2008-05-28,0.99, 0.24, -21.38, 2.15, 1.53, 7.70, repro,
2008-05-29,0.37, 0.90, -15.25, 2.14, 1.50, 7.65, repro,
2008-05-30,0.60, 0.28, -12.90, 2.17, 1.50, 7.70, repro,
2008-05-31,1.83, -0.26, -12.88, 2.18, 1.51, 7.93, repro,
2008-06-01,0.78, 0.61, -7.50, 2.13, 1.49, 7.63, repro,
2008-06-02,2.22, -0.93, -13.26, 2.12, 1.49, 7.63, repro,
2008-06-03,2.38, -1.27, -7.24, 2.16, 1.50, 7.81, repro,
2008-06-04,0.54, -0.12, -7.19, 2.14, 1.48, 7.63, repro,
2008-06-05,1.08, 0.95, -5.42, 2.12, 1.48, 7.60, repro,
2008-06-06,0.00, 1.75, -5.86, 2.15, 1.51, 7.82, repro,
2008-06-07,0.73, 1.57, -19.03, 2.25, 1.60, 8.21, repro,
2008-06-08,-1.40, 0.56, -11.29, 2.15, 1.53, 7.89, repro,
2008-06-09,-0.03, 1.71, -9.50, 2.18, 1.52, 7.90, repro,
2008-06-10,0.77, 2.59, -9.43, 2.13, 1.48, 7.65, repro,
2008-06-11,-0.68, 0.98, -11.38, 2.12, 1.49, 7.63, repro,
2008-06-12,-0.56, 1.09, -12.73, 2.16, 1.51, 7.80, repro,
2008-06-13,0.07, -0.91, -14.44, 2.11, 1.50, 7.65, repro,
2008-06-14,-0.98, -0.04, -12.26, 2.16, 1.54, 7.80, repro,
2008-06-15,-0.26, 0.64, -7.41, 2.19, 1.56, 7.86, repro,
2008-06-16,0.39, -0.06, -15.21, 2.15, 1.50, 7.67, repro,
2008-06-17,-0.26, 0.41, -13.20, 2.13, 1.50, 7.69, repro,
2008-06-18,1.87, -0.24, -10.67, 2.13, 1.50, 7.70, repro,
2008-06-19,-0.22, -0.68, -9.69, 2.16, 1.52, 7.79, repro,
2008-06-20,1.06, 0.06, -2.20, 2.15, 1.50, 7.66, repro,
2008-06-21,0.72, 0.09, -7.11, 2.26, 1.63, 7.71, repro,
2008-06-22,0.67, -0.55, -9.25, 2.12, 1.50, 7.61, repro,
2008-06-23,1.57, -0.35, -8.32, 2.12, 1.50, 7.68, repro,
2008-06-24,1.23, -1.15, -9.50, 2.12, 1.50, 7.72, repro,
2008-06-25,1.25, -2.31, -7.96, 2.15, 1.51, 7.73, repro,
2008-06-26,0.15, -0.34, -1.39, 2.20, 1.53, 7.95, repro,
2008-06-27,-0.02, 0.33, -1.36, 2.14, 1.49, 7.66, repro,
2008-06-28,1.03, 0.05, 0.40, 2.12, 1.50, 7.68, repro,
2008-06-29,-0.71, 0.87, -0.81, 2.12, 1.50, 7.69, repro,
2008-06-30,-0.36, 0.81, -4.88, 2.11, 1.49, 7.63, repro,
2008-07-01,-1.04, 0.39, -5.91, 2.12, 1.49, 7.59, repro,
2008-07-02,-1.01, 2.23, -4.05, 2.13, 1.49, 7.63, repro,
2008-07-03,0.29, 0.31, -8.18, 2.13, 1.50, 7.69, repro,
2008-07-04,1.46, -0.98, -2.74, 2.12, 1.49, 7.65, repro,
2008-07-05,0.71, -0.13, -4.73, 2.15, 1.49, 7.67, repro,
2008-07-06,1.01, 0.79, 1.97, 2.11, 1.49, 7.63, repro,
2008-07-07,-0.84, 0.48, -1.49, 2.13, 1.49, 7.66, repro,
2008-07-08,-1.70, -0.16, -2.72, 2.14, 1.49, 7.70, repro,
2008-07-09,-2.67, -1.03, -4.78, 2.12, 1.49, 7.67, repro,
2008-07-10,-0.14, 0.13, -2.03, 2.15, 1.53, 7.72, repro,
2008-07-11,0.36, 0.42, -6.43, 2.19, 1.55, 7.84, repro,
2008-07-12,-0.36, 0.54, -2.05, 2.28, 1.58, 8.14, repro,
2008-07-13,-1.38, 1.22, -1.92, 2.19, 1.53, 7.85, repro,
2008-07-14,1.39, 0.56, -1.77, 2.12, 1.48, 7.60, repro,
2008-07-15,0.99, -0.12, -3.15, 2.11, 1.49, 7.59, repro,
2008-07-16,1.35, 0.77, 1.88, 2.12, 1.49, 7.64, repro,
2008-07-17,-1.99, 1.77, 1.14, 2.12, 1.50, 7.68, repro,
2008-07-18,0.02, 0.74, 9.87, 2.16, 1.51, 8.03, repro,
2008-07-19,0.04, 1.00, 3.90, 2.16, 1.51, 8.00, repro,
2008-07-20,-0.67, 0.45, 8.84, 2.11, 1.49, 7.62, repro,
2008-07-21,0.67, -0.35, 4.35, 2.12, 1.49, 7.62, repro,
2008-07-22,0.97, 0.29, -7.50, 2.14, 1.50, 7.71, repro,
2008-07-23,0.63, 1.33, -5.13, 2.22, 1.55, 8.13, repro,
2008-07-24,0.37, 0.94, -3.81, 2.14, 1.51, 7.78, repro,
2008-07-25,0.69, 0.61, -5.82, 2.10, 1.48, 7.57, repro,
2008-07-26,0.49, 0.73, -2.79, 2.10, 1.49, 7.63, repro,
2008-07-27,-0.31, 0.81, -1.68, 2.23, 1.59, 7.70, repro,
2008-07-28,-1.53, 0.61, 1.56, 2.20, 1.57, 7.87, repro,
2008-07-29,-1.04, 2.01, -6.44, 2.17, 1.56, 7.86, repro,
2008-07-30,0.24, -1.50, -8.17, 2.28, 1.69, 7.77, repro,
2008-07-31,1.94, -0.23, -7.85, 2.10, 1.48, 7.57, repro,
2008-08-01,0.79, 0.59, 3.53, 2.12, 1.49, 7.63, repro,
2008-08-02,0.62, 0.95, -6.38, 2.13, 1.49, 7.70, repro,
2008-08-03,0.31, 0.07, -10.53, 2.16, 1.51, 7.89, repro,
2008-08-04,-1.21, 0.80, -7.34, 2.22, 1.60, 7.69, repro,
2008-08-05,-1.09, 1.63, -7.23, 2.08, 1.48, 7.56, repro,
2008-08-06,-0.46, 0.93, -6.89, 2.11, 1.50, 7.68, repro,
2008-08-07,-0.45, 1.27, -6.01, 2.23, 1.55, 8.03, repro,
2008-08-08,-0.45, 0.75, -4.31, 2.23, 1.55, 8.03, repro,
2008-08-09,-0.22, 1.48, -4.88, 2.17, 1.52, 7.90, repro,
2008-08-10,-1.14, 1.19, -2.77, 2.14, 1.51, 7.79, repro,
2008-08-11,-2.14, 0.72, -3.47, 2.11, 1.49, 7.70, repro,
2008-08-12,-1.39, 0.51, -2.87, 2.26, 1.62, 7.91, repro,
2008-08-13,-1.30, 1.26, -0.05, 2.27, 1.62, 7.95, repro,
2008-08-14,0.12, 0.50, -1.32, 2.15, 1.51, 7.90, repro,
2008-08-15,-1.73, 1.74, -5.79, 2.27, 1.63, 7.96, repro,
2008-08-16,0.52, 0.74, -7.15, 2.12, 1.50, 7.73, repro,
2008-08-17,-0.90, 0.72, -4.03, 2.24, 1.61, 7.86, repro,
2008-08-18,-0.61, 1.17, -0.74, 2.27, 1.60, 7.91, repro,
2008-08-19,-0.43, 1.62, 3.67, 2.17, 1.50, 7.88, repro,
2008-08-20,0.84, 1.50, 0.86, 2.19, 1.55, 7.94, repro,
2008-08-21,-1.27, 1.69, 2.04, 2.12, 1.50, 7.73, repro,
2008-08-22,-1.62, 1.90, 3.76, 2.12, 1.51, 7.78, repro,
2008-08-23,-1.53, 1.38, -1.11, 2.14, 1.51, 7.79, repro,
2008-08-24,-1.47, 1.07, -0.77, 2.19, 1.52, 7.94, repro,
2008-08-25,-0.00, 2.29, 4.53, 2.14, 1.50, 7.81, repro,
2008-08-26,-1.10, 0.21, -4.02, 2.14, 1.51, 7.82, repro,
2008-08-27,-1.08, 1.16, -0.98, 2.16, 1.52, 7.93, repro,
2008-08-28,-1.64, 0.16, -4.98, 2.22, 1.58, 8.03, repro,
2008-08-29,-2.17, 1.39, -6.98, 2.16, 1.51, 7.89, repro,
2008-08-30,0.12, 1.28, -6.24, 2.17, 1.51, 7.97, repro,
2008-08-31,0.30, 0.71, -2.07, 2.17, 1.51, 7.95, repro,
2008-09-01,-1.19, 1.26, -0.65, 2.16, 1.51, 7.88, repro,
2008-09-02,-1.51, 0.77, -1.09, 2.18, 1.52, 7.92, repro,
2008-09-03,-2.61, 0.73, -1.39, 2.18, 1.52, 7.96, repro,
2008-09-04,-1.83, 0.87, -6.20, 2.48, 1.67, 8.77, repro,
2008-09-05,-2.16, 1.85, 0.01, 2.17, 1.53, 7.97, repro,
2008-09-06,-1.49, 0.70, -4.47, 2.16, 1.51, 7.91, repro,
2008-09-07,-1.64, 0.38, -1.16, 2.32, 1.67, 8.05, repro,
2008-09-08,-1.11, 0.25, -3.49, 2.16, 1.53, 7.94, repro,
2008-09-09,-1.76, 0.43, -1.32, 2.19, 1.53, 8.01, repro,
2008-09-10,-1.61, 1.23, 0.54, 2.16, 1.52, 7.90, repro,
2008-09-11,-2.59, 1.25, -1.19, 2.16, 1.51, 7.93, repro,
2008-09-12,-2.61, 1.27, -1.43, 2.15, 1.53, 7.89, repro,
2008-09-13,-1.38, 1.09, 2.28, 2.16, 1.51, 7.90, repro,